San Francisco, California
Traffic Map
Current Weather Conditions
San Francisco, California
Few Clouds
Few Clouds
67°
Feels Like: 67°
Wind Chill: 67° Ceiling: Unl
Heat Index: 67° Visibility: 10mi
Dew Point: 53° Wind: 9mph
Humidity: 61% Direction: 310° (NW)
Pressure: 29.91in Gusts: 0mph
Raw Report DataKSFO 281756Z 31008KT 10SM FEW008 19/12 A2991 RMK AO2 SLP130 T01940117 10194 20128 50006
Traffic Incident Summary
Active as of:
Severity:
Category:
InformationThere was an issue retrieving the traffic information for this location. Please try a different location or try again shortly.
Advertisements
Track Severe Weather on mobile